Hourly Data Report for June 01, 2021

ATIKOKAN (AUT)
ONTARIO
Current Station Operator: ECCC - MSC

48°45'40.000" N
91°37'41.000" W
389.30 m
6020LPQ
71747
WCH

Download Data

Hourly Data (June 2021)
Hourly Data Report for June 1, 2021
TIME
LST
Temp Definition
°C
Dew Point Definition
°C
Rel Hum Definition
%
Precip. Amount Definition
mm

Wind Dir Definition
10's deg

Wind Spd Definition
km/h
Visibility Definition
km
Stn Press Definition
kPa
Hmdx Definition


Wind Chill Definition


Weather Definition


00:00 8.0 7.3 95 0.0   0   97.39     LegendNANA
01:00 6.9 6.5 97 0.0   0   97.40     LegendNANA
02:00 6.2 5.9 98 0.0 0 1   97.39     LegendNANA
03:00 5.6 5.3 98 0.0   0   97.40     LegendNANA
04:00 4.8 4.5 98 0.0 0 1   97.40     LegendNANA
05:00 5.3 5.1 99 0.0 6 1   97.42     LegendNANA
06:00 8.1 7.7 98 0.0 0 1   97.43     LegendNANA
07:00 13.3 9.2 76 0.0 22 1   97.43     LegendNANA
08:00 17.1 8.5 57 0.0 16 1   97.42     LegendNANA
09:00 19.1 7.7 47 0.0 27 4   97.38     LegendNANA
10:00 20.3 6.6 41 0.0 26 10   97.35     LegendNANA
11:00 21.1 6.5 39 0.0 21 7   97.32     LegendNANA
12:00 21.1 5.4 36 0.0 23 14   97.30     LegendNANA
13:00 22.2 5.7 34 0.0 22 10   97.25     LegendNANA
14:00 22.4 3.2 28 0.0 25 11   97.19     LegendNANA
15:00 22.9 3.1 27 0.0 22 13   97.16     LegendNANA
16:00 23.1 1.5 24 0.0 20 12   97.10     LegendNANA
17:00 22.6 3.3 28 0.0 20 15   97.05     LegendNANA
18:00 22.1 2.8 28 0.0 23 10   97.01     LegendNANA
19:00 19.8 5.5 39 0.0 20 5   96.99     LegendNANA
20:00 14.8 6.4 57 0.0 0 1   96.97     LegendNANA
21:00 11.9 7.4 74 0.0 6 2   96.98     LegendNANA
22:00 10.3 7.7 84 0.0 6 2   96.98     LegendNANA
23:00 9.2 7.4 88 0.0 6 2   96.96     LegendNANA

Notes on Data Quality.

Legend

  • E = Estimated
  • M = Missing
  • NA = Not Available*
  • [empty] = Indicates an unobserved value
Date modified: